[[{"header":{"parameterUnit":"m.s-1","parameterCategory":2,"la1":30.2991,"la2":30.254,"lo1":-89.0895,"lo2":-89.0444,"dy":0.0017,"dx":0.0017,"nx":28,"ny":28,"refTime":"2023-10-22T09:00:00:Z","depth":"0","parameterNumber":2,"parameterNumberName":"U-component_of_CURRENTS"},"data":[0,0,0,0,0,0,0,0,0,0,0,0,0,0,0,0,0,0,0,0,0,0,0,0,0,0,0,0,0,0,0,0,0,0,0,0,0,0,0,0,0,0,0,0,0,0,0,0,0,0,0,0,0,0,0,0,0,0,0.2176,0.2176,0,0.2129,0.2128,0.2127,0.207,0.207,0.2069,0.2069,0.1991,0.199,0.1988,0,0,0,0,0,0,0,0,0,0,0,0,0,0.2231,0.223,0.2176,0.2176,0.2176,0.2129,0.2128,0.2127,0.207,0.207,0.2069,0.2068,0.1992,0.199,0.1988,0,0,0,0,0,0,0,0,0,0,0,0,0,0.2195,0.2229,0.2177,0.2144,0.2141,0.2129,0.2128,0.2127,0.2071,0.207,0.2069,0.2068,0.1992,0.199,0.1988,0.1992,0,0,0.1981,0.198,0,0,0,0,0,0,0,0,0.2197,0.2192,0.2149,0.2146,0.2143,0.2107,0.2119,0.2081,0.2071,0.2094,0.2069,0.2068,0.203,0.2025,0.2014,0.1988,0.1985,0.1981,0.1979,0.1979,0.1978,0,0,0,0,0,0,0,0.2199,0.2194,0.2154,0.2149,0.2145,0.2137,0.213,0.2111,0.2065,0.2092,0.2089,0.2088,0.2027,0.2016,0.2011,0.1984,0.1981,0.1979,0.1978,0.1977,0.1987,0.1989,0,0,0,0,0,0,0.2212,0.2196,0.2156,0.2153,0.2172,0.2137,0.2129,0.2117,0.2065,0.2058,0.2089,0.2086,0.202,0.2014,0.2008,0.2027,0.1979,0.1976,0.1975,0.1985,0.1987,0.1989,0,0,0,0,0,0,0.2213,0.2208,0.2158,0.2177,0.217,0.2137,0.2124,0.2117,0.2109,0.2064,0.2055,0.209,0.2019,0.2012,0.2,0.2023,0.1975,0.1973,0.1983,0.1986,0.1988,0.2054,0,0,0,0,0,0,0.2214,0.2208,0.2211,0.2177,0.217,0.2153,0.2125,0.2117,0.2112,0.2107,0.2062,0.2053,0.2018,0.2004,0.1998,0.2019,0.1972,0.1981,0.1985,0.1987,0.205,0.2059,0.2066,0,0,0,0,0,0.2216,0.2214,0.2211,0.2207,0.2172,0.2154,0.2149,0.212,0.2113,0.211,0.2086,0.2055,0.2019,0.2003,0.1996,0.2017,0.198,0.1984,0.1987,0.2046,0.2057,0.2066,0,0,0,0,0,0,0.2235,0.2208,0.2203,0.2193,0.2181,0.2145,0.2144,0.2132,0.2112,0.2105,0.2067,0.2057,0.2065,0.2035,0.2018,0.2033,0.1998,0.2001,0.2046,0.2055,0.2063,0.2122,0.197,0,0,0,0,0,0.2246,0.2238,0.2214,0.221,0.2205,0.2182,0.2175,0.2154,0.2132,0.2121,0.2094,0.2074,0.2075,0.2059,0.2049,0.2045,0.2084,0.2059,0.2067,0.2074,0.2119,0.2199,0.222,0.2001,0.2001,0.2001,0,0,0.2252,0.2239,0.2234,0.2216,0.2203,0.2196,0.2174,0.2161,0.2162,0.2117,0.2111,0.2105,0.2086,0.2089,0.2089,0.2061,0.2154,0.2079,0.2084,0.2127,0.2206,0.2227,0.2247,0.2004,0.2003,0.2003,0,0,0.2259,0.2251,0.2247,0.2242,0.2228,0.2212,0.2215,0.2187,0.2181,0.2177,0.2162,0.2191,0.2145,0.2165,0.2164,0.2218,0.2206,0.2186,0.2256,0.2333,0.2352,0.237,0.244,0.2464,0.2175,0.2175,0.2175,0,0.2272,0.2257,0.2246,0.2245,0.2239,0.2225,0.2218,0.2219,0.2193,0.22,0.2181,0.2207,0.2203,0.2247,0.2273,0.2243,0.2267,0.2214,0.2346,0.2364,0.2381,0.2449,0.2474,0.2179,0.2178,0.2178,0.2178,0,0.2271,0.2268,0.2267,0.2259,0.2256,0.2246,0.2244,0.2246,0.2242,0.2245,0.2289,0.2305,0.2323,0.2328,0.2319,0.2425,0.2399,0.2358,0.2324,0.2408,0.2473,0.2498,0.2184,0.2183,0.2182,0.2181,0,0,0.2267,0.2264,0.2264,0.2256,0.2257,0.2242,0.2267,0.2274,0.2291,0.2313,0.2351,0.2416,0.2437,0.2446,0.2446,0.2529,0.2684,0.2496,0.2498,0.2573,0.2845,0.277,0.2789,0.2643,0.2648,0.2652,0.284,0,0.2266,0.2257,0.226,0.2252,0.224,0.2248,0.2267,0.2282,0.2301,0.2337,0.2411,0.2446,0.2472,0.2484,0.2584,0.2645,0.2753,0.2637,0.2749,0.2754,0.2683,0.2817,0.2684,0.2835,0.2864,0.2868,0.2871,0,0.2252,0.2247,0.2233,0.2229,0.2226,0.2225,0.2239,0.226,0.233,0.2354,0.2435,0.2469,0.2612,0.2611,0.2827,0.2735,0.2829,0.2891,0.2897,0.2832,0.2727,0.2758,0.2879,0.2743,0.291,0.2907,0.2904,0,0.2221,0.2221,0.2202,0.2202,0.2206,0.2203,0.2212,0.2259,0.2276,0.2375,0.2402,0.2547,0.2614,0.2769,0.2903,0.2868,0.3125,0.3077,0.3116,0.3109,0.3029,0.3007,0.3045,0.3283,0.3283,0.3282,0.3282,0,0.2201,0.2186,0.2182,0.2169,0.2145,0.2171,0.2168,0.2205,0.227,0.2304,0.2413,0.2474,0.2659,0.2795,0.2933,0.31,0.3154,0.3191,0.3176,0.3043,0.3022,0.2922,0.2843,0.3289,0.3288,0.3286,0.3285,0,0.2162,0.2166,0.2136,0.2131,0.2122,0.2106,0.2112,0.2124,0.2202,0.2258,0.2292,0.2443,0.2625,0.2796,0.304,0.3116,0.3185,0.3333,0.3161,0.3123,0.3007,0.2936,0.2932,0.2856,0.3428,0.3428,0.3427,0,0.2136,0.2116,0.2086,0.2059,0.2049,0.2031,0.202,0.2079,0.21,0.2234,0.2262,0.2439,0.2553,0.2864,0.3049,0.328,0.3173,0.3262,0.3202,0.3035,0.2947,0.2821,0.2748,0.3128,0.3125,0.3123,0.3121,0,0.2077,0.2066,0.204,0.1984,0.1953,0.1922,0.1921,0.1932,0.2024,0.2084,0.2189,0.2291,0.2578,0.2738,0.3005,0.3135,0.3042,0.3221,0.3106,0.279,0.2603,0.2506,0.2958,0.3101,0.3103,0.3104,0.3105,0.3106,0.2022,0.1985,0.1944,0.1884,0.1848,0.1809,0.1776,0.182,0.185,0.195,0.2085,0.2228,0.2448,0.2808,0.2907,0.2935,0.2947,0.2872,0.2831,0.2742,0.2574,0.298,0.3048,0.305,0.3051,0.3052,0.3054,0,0.1929,0.1894,0.1842,0.1757,0.1685,0.1703,0.1692,0.1673,0.1698,0.186,0.1956,0.2172,0.2312,0.2499,0.262,0.2548,0.2487,0.2457,0.2251,0.2227,0.2652,0.2539,0.2425,0.2425,0.2425,0.2425,0.2425,0.2426,0.1875,0.1794,0.1763,0.1609,0.1555,0.1457,0.1446,0.1461,0.1546,0.1677,0.1811,0.1967,0.2119,0.2184,0.2143,0.2138,0.1967,0.187,0.1879,0.2148,0.2182,0.2215,0.209,0.1884,0.1884,0.1373,0.1368,0.1365]},{"header":{"parameterUnit":"m.s-1","parameterCategory":2,"la1":30.2991,"la2":30.254,"lo1":-89.0895,"lo2":-89.0444,"dy":0.0017,"dx":0.0017,"nx":28,"ny":28,"refTime":"2023-10-22T09:00:00:Z","depth":"0","parameterNumber":3,"parameterNumberName":"V-component_of_CURRENTS"},"data":[0,0,0,0,0,0,0,0,0,0,0,0,0,0,0,0,0,0,0,0,0,0,0,0,0,0,0,0,0,0,0,0,0,0,0,0,0,0,0,0,0,0,0,0,0,0,0,0,0,0,0,0,0,0,0,0,0,0,0.0255,0.0255,0,0.019,0.0189,0.0188,0.0141,0.0141,0.014,0.014,0.0086,0.0085,0.0084,0,0,0,0,0,0,0,0,0,0,0,0,0,0.0282,0.0282,0.0255,0.0255,0.0254,0.019,0.0189,0.0188,0.0141,0.0141,0.014,0.014,0.0087,0.0085,0.0083,0,0,0,0,0,0,0,0,0,0,0,0,0,0.0247,0.0282,0.0255,0.0225,0.0222,0.019,0.0189,0.0187,0.0141,0.0141,0.014,0.014,0.0087,0.0085,0.0083,0.0076,0,0,0.0077,0.0077,0,0,0,0,0,0,0,0,0.0249,0.0245,0.023,0.0227,0.0223,0.0175,0.0178,0.0152,0.0141,0.0169,0.014,0.014,0.0119,0.0114,0.0099,0.0074,0.0071,0.0077,0.0076,0.0075,0.0075,0,0,0,0,0,0,0,0.0251,0.0248,0.0227,0.0229,0.0225,0.0195,0.019,0.0172,0.0144,0.0166,0.0163,0.016,0.0117,0.0101,0.0097,0.0071,0.0077,0.0076,0.0074,0.0074,0.0082,0.0084,0,0,0,0,0,0,0.0268,0.025,0.0229,0.0225,0.0238,0.0195,0.0189,0.0189,0.0144,0.0138,0.016,0.0158,0.0104,0.01,0.0095,0.0153,0.0075,0.0073,0.0072,0.0081,0.0083,0.0084,0,0,0,0,0,0,0.0268,0.0266,0.0232,0.0238,0.0232,0.0195,0.0195,0.0188,0.0176,0.014,0.0133,0.0157,0.0104,0.0098,0.0096,0.0148,0.0073,0.0071,0.0079,0.0081,0.0083,0.0224,0,0,0,0,0,0,0.027,0.0267,0.0271,0.0239,0.0232,0.0231,0.0195,0.0187,0.0175,0.0172,0.0135,0.0129,0.0103,0.01,0.0094,0.0144,0.0069,0.0077,0.008,0.0083,0.0218,0.0231,0.0242,0,0,0,0,0,0.0271,0.0288,0.0272,0.0269,0.0239,0.0232,0.0226,0.0197,0.0176,0.0182,0.0158,0.013,0.0113,0.0099,0.0093,0.0143,0.0076,0.0079,0.0082,0.0212,0.0228,0.0242,0,0,0,0,0,0,0.0297,0.0284,0.0266,0.0276,0.0261,0.0226,0.023,0.0204,0.0186,0.0183,0.0143,0.0136,0.016,0.0122,0.0108,0.0151,0.0092,0.0094,0.0193,0.0207,0.0219,0.0285,0.0068,0,0,0,0,0,0.0306,0.0317,0.0294,0.03,0.03,0.0263,0.0255,0.0234,0.0215,0.0205,0.0179,0.0159,0.0166,0.0163,0.0152,0.0168,0.0156,0.0195,0.0208,0.0218,0.0266,0.0299,0.0319,0.0094,0.0094,0.0094,0,0,0.0315,0.031,0.0314,0.0307,0.0292,0.0305,0.0258,0.0256,0.0276,0.0204,0.0222,0.02,0.0179,0.0208,0.0215,0.0184,0.0266,0.0222,0.0232,0.0275,0.0304,0.0327,0.0347,0.0096,0.0096,0.0096,0,0,0.0346,0.0341,0.0361,0.0359,0.0349,0.0337,0.0342,0.0313,0.0316,0.0325,0.0294,0.0318,0.0285,0.0311,0.0314,0.0386,0.0331,0.0356,0.0473,0.0503,0.0523,0.0541,0.0518,0.0533,0.036,0.036,0.0361,0,0.0355,0.038,0.0364,0.0384,0.0398,0.036,0.0389,0.0391,0.0364,0.0394,0.0351,0.0381,0.0358,0.0442,0.0467,0.0425,0.0398,0.0422,0.0524,0.0541,0.0556,0.0529,0.0544,0.0368,0.0367,0.0366,0.0365,0,0.0399,0.0421,0.0438,0.0458,0.0471,0.0491,0.0497,0.0516,0.051,0.0514,0.0584,0.0563,0.059,0.0583,0.0549,0.0652,0.058,0.0538,0.0496,0.0589,0.0552,0.0565,0.0378,0.0375,0.0373,0.0371,0,0,0.0417,0.0461,0.0467,0.05,0.0516,0.0536,0.0596,0.0651,0.071,0.0709,0.0795,0.0829,0.0817,0.0823,0.0787,0.0821,0.0892,0.073,0.0728,0.0725,0.0914,0.0822,0.0825,0.0853,0.0857,0.086,0.0831,0,0.0456,0.0514,0.0532,0.0605,0.0641,0.0659,0.0724,0.0771,0.0803,0.0872,0.091,0.0958,0.0906,0.0917,0.0959,0.0905,0.0936,0.0902,0.0812,0.0809,0.0732,0.0843,0.0855,0.0828,0.0843,0.0845,0.0846,0,0.0497,0.0535,0.0604,0.0699,0.0721,0.0763,0.0877,0.0929,0.1026,0.1052,0.1127,0.1122,0.12,0.1123,0.1144,0.111,0.1046,0.1001,0.0997,0.0887,0.0744,0.0744,0.0849,0.0684,0.0865,0.0864,0.0862,0,0.0519,0.0599,0.0663,0.0687,0.0774,0.0835,0.0893,0.0986,0.106,0.1164,0.1214,0.1288,0.1309,0.1292,0.1198,0.1168,0.1186,0.1121,0.0988,0.0976,0.0965,0.0947,0.0929,0.1165,0.1165,0.1166,0.1166,0,0.0561,0.0617,0.068,0.0714,0.0822,0.0871,0.0999,0.1063,0.1172,0.1276,0.1304,0.1382,0.1351,0.1342,0.1259,0.1163,0.1232,0.1055,0.0995,0.1004,0.0991,0.0824,0.0752,0.1164,0.1165,0.1165,0.1165,0,0.0574,0.061,0.0691,0.0789,0.0829,0.0903,0.1046,0.1141,0.1223,0.1357,0.1391,0.1456,0.1445,0.1383,0.1327,0.1218,0.1065,0.1082,0.1066,0.1007,0.0718,0.0654,0.0642,0.0588,0.0952,0.095,0.0948,0,0.0585,0.0621,0.0727,0.0784,0.0832,0.0948,0.1038,0.1153,0.1251,0.1402,0.1471,0.15,0.1545,0.1418,0.1258,0.1113,0.1004,0.0976,0.0951,0.0748,0.0633,0.0612,0.0567,0.0969,0.0967,0.0966,0.0965,0,0.061,0.0639,0.0704,0.081,0.0906,0.103,0.1163,0.1241,0.1385,0.1484,0.1604,0.1651,0.1552,0.1431,0.1204,0.1092,0.0886,0.0943,0.0779,0.0709,0.0649,0.0551,0.0887,0.0955,0.0956,0.0957,0.0958,0.0958,0.0625,0.067,0.075,0.0856,0.0968,0.1106,0.1205,0.133,0.1475,0.1627,0.1681,0.1765,0.1587,0.1305,0.1107,0.0733,0.0785,0.0623,0.0576,0.0583,0.0515,0.0796,0.0759,0.0759,0.0759,0.0759,0.0759,0,0.0647,0.0707,0.0801,0.0932,0.1051,0.1113,0.1291,0.138,0.152,0.1661,0.1764,0.1757,0.1481,0.1189,0.0711,0.0422,0.0379,0.0276,0.0277,0.0259,0.055,0.0529,0.0387,0.0387,0.0388,0.0388,0.0388,0.0388,0.0665,0.0747,0.0798,0.098,0.1077,0.1232,0.1329,0.1439,0.1561,0.1695,0.1773,0.1844,0.162,0.0808,0.0212,0.0093,-0.007,-0.0078,-0.0182,0.0007,0.0036,0.0064,0.0026,-0.0219,-0.0219,-0.0416,-0.0418,-0.042]}],[{"header":{"parameterUnit":"m.s-1","parameterCategory":2,"la1":30.2991,"la2":30.254,"lo1":-89.0895,"lo2":-89.0444,"dy":0.0017,"dx":0.0017,"nx":28,"ny":28,"refTime":"2023-10-22T09:00:00:Z","depth":"2","parameterNumber":2,"parameterNumberName":"U-component_of_CURRENTS"},"data":[0,0,0,0,0,0,0,0,0,0,0,0,0,0,0,0,0,0,0,0,0,0,0,0,0,0,0,0,0,0,0,0,0,0,0,0,0,0,0,0,0,0,0,0,0,0,0,0,0,0,0,0,0,0,0,0,0,0,0.216,0.2161,0,0.2201,0.2201,0.2201,0.2227,0.2228,0.2228,0.2228,0.2261,0.2262,0.2262,0,0,0,0,0,0,0,0,0,0,0,0,0,0.2141,0.2141,0.216,0.2161,0.2162,0.2201,0.2201,0.2201,0.2227,0.2228,0.2228,0.2229,0.2261,0.2262,0.2262,0,0,0,0,0,0,0,0,0,0,0,0,0,0.216,0.214,0.216,0.2181,0.2183,0.2201,0.2201,0.2202,0.2227,0.2228,0.2228,0.2229,0.2261,0.2262,0.2262,0.2256,0,0,0.2265,0.2265,0,0,0,0,0,0,0,0,0.2159,0.216,0.2177,0.218,0.2182,0.2212,0.2206,0.222,0.2227,0.2208,0.2229,0.2229,0.2245,0.2247,0.225,0.2258,0.2259,0.2265,0.2265,0.2266,0.2266,0,0,0,0,0,0,0,0.2157,0.2159,0.2174,0.2178,0.2181,0.2201,0.2203,0.2209,0.2221,0.221,0.2213,0.222,0.2246,0.225,0.2251,0.226,0.2265,0.2266,0.2266,0.2266,0.2315,0.2316,0,0,0,0,0,0,0.2154,0.2157,0.2173,0.2176,0.2174,0.22,0.2203,0.22,0.2221,0.2226,0.222,0.2221,0.2248,0.225,0.2253,0.2288,0.2266,0.2266,0.2267,0.2314,0.2315,0.2316,0,0,0,0,0,0,0.2153,0.2155,0.2171,0.217,0.2174,0.22,0.2196,0.22,0.222,0.2229,0.2233,0.2237,0.2248,0.2252,0.2271,0.2287,0.2267,0.2268,0.2313,0.2314,0.2316,0.2331,0,0,0,0,0,0,0.2152,0.2154,0.2163,0.2169,0.2174,0.2191,0.2196,0.2201,0.2224,0.2227,0.2245,0.2248,0.2249,0.227,0.2272,0.2288,0.2268,0.2312,0.2314,0.2315,0.233,0.2333,0.2335,0,0,0,0,0,0.2151,0.2157,0.2163,0.2166,0.2181,0.2191,0.2195,0.2215,0.2225,0.2234,0.2248,0.2248,0.2281,0.2271,0.2273,0.229,0.2311,0.2313,0.2315,0.2328,0.2332,0.2335,0,0,0,0,0,0,0.2159,0.2161,0.2167,0.2175,0.2188,0.2197,0.2213,0.2223,0.2241,0.2249,0.2254,0.2258,0.2281,0.2284,0.2273,0.231,0.2298,0.2301,0.2308,0.2311,0.2314,0.2297,0.2269,0,0,0,0,0,0.2163,0.2166,0.2173,0.2184,0.2188,0.2203,0.2215,0.2226,0.2238,0.2248,0.2258,0.2273,0.2287,0.2299,0.2308,0.2326,0.2347,0.234,0.2343,0.2346,0.2334,0.2382,0.2388,0.2322,0.2322,0.2322,0,0,0.2171,0.2174,0.2178,0.2186,0.2197,0.2204,0.2211,0.223,0.224,0.2248,0.2268,0.2281,0.2294,0.2315,0.2326,0.2322,0.2382,0.2348,0.235,0.2337,0.2385,0.2391,0.2397,0.2323,0.2323,0.2323,0,0,0.2181,0.2188,0.2192,0.2199,0.2217,0.2221,0.2228,0.2241,0.2253,0.2269,0.2282,0.2303,0.2321,0.2335,0.2344,0.2368,0.2394,0.238,0.2383,0.2431,0.2436,0.2441,0.2504,0.2514,0.2385,0.2385,0.2385,0,0.2196,0.2195,0.2198,0.2204,0.2214,0.2227,0.2235,0.2245,0.2265,0.228,0.2277,0.2317,0.2326,0.2358,0.2364,0.2374,0.2412,0.2368,0.2434,0.244,0.2445,0.2507,0.2518,0.2386,0.2385,0.2385,0.2385,0,0.2199,0.2209,0.2213,0.2218,0.2229,0.224,0.2248,0.2266,0.2279,0.229,0.2322,0.2333,0.2363,0.237,0.237,0.2415,0.2436,0.2431,0.2424,0.2452,0.2517,0.2528,0.2387,0.2387,0.2386,0.2386,0,0,0.2204,0.2213,0.2217,0.2225,0.2238,0.2246,0.2263,0.2284,0.2309,0.232,0.2355,0.2365,0.2382,0.2393,0.2407,0.2433,0.2506,0.2445,0.2447,0.2504,0.2633,0.2543,0.2547,0.252,0.2521,0.2522,0.2674,0,0.221,0.222,0.2222,0.2241,0.2247,0.2263,0.2279,0.2303,0.2325,0.2362,0.2378,0.2416,0.239,0.2421,0.244,0.2491,0.2533,0.2466,0.2598,0.2602,0.2515,0.2555,0.2235,0.2332,0.2685,0.2687,0.2689,0,0.221,0.2218,0.2233,0.2255,0.226,0.2275,0.2313,0.2331,0.2379,0.24,0.2434,0.246,0.2505,0.2481,0.2569,0.2533,0.2582,0.261,0.2617,0.2526,0.2531,0.2356,0.234,0.2708,0.2706,0.2705,0.2704,0,0.2208,0.2226,0.224,0.2246,0.227,0.229,0.2309,0.2349,0.2372,0.2442,0.2477,0.2526,0.2566,0.2619,0.2669,0.264,0.2769,0.2747,0.2715,0.2711,0.2456,0.2426,0.2816,0.2816,0.2816,0.2815,0.2815,0,0.2205,0.2222,0.2245,0.2252,0.2277,0.2298,0.2334,0.2363,0.2415,0.2451,0.2504,0.2542,0.2599,0.2674,0.2713,0.2749,0.2819,0.2717,0.2737,0.2455,0.2424,0.2752,0.2742,0.2821,0.282,0.2819,0.2818,0,0.2201,0.2215,0.2235,0.2264,0.2276,0.2297,0.2337,0.2362,0.2421,0.2477,0.2507,0.2579,0.2673,0.2743,0.2844,0.2798,0.2855,0.2859,0.253,0.2505,0.276,0.275,0.2831,0.2829,0.2828,0.2826,0.2825,0,0.2199,0.2206,0.2238,0.2247,0.2263,0.2294,0.2311,0.2359,0.2385,0.2487,0.2512,0.2626,0.2664,0.2774,0.2696,0.2745,0.2887,0.2518,0.2375,0.2747,0.2759,0.2751,0.2744,0.2071,0.2063,0.2057,0.2053,0,0.219,0.2204,0.2217,0.2235,0.2254,0.2267,0.2301,0.2314,0.2378,0.2422,0.2481,0.2523,0.2556,0.2411,0.2452,0.2434,0.247,0.2397,0.2882,0.2105,0.2037,0.2047,0.2063,0.1999,0.2005,0.2008,0.2011,0.2013,0.2184,0.2188,0.2201,0.2215,0.2232,0.2231,0.2224,0.2248,0.2265,0.2223,0.2304,0.2232,0.2193,0.2042,0.2019,0.1987,0.2155,0.2062,0.2077,0.2099,0.1972,0.1903,0.1819,0.1823,0.1826,0.1829,0.1832,0,0.2159,0.2168,0.2176,0.2177,0.2169,0.2203,0.2205,0.2143,0.2122,0.201,0.1949,0.1673,0.1553,0.1632,0.1438,0.1427,0.1371,0.1437,0.1337,0.1388,0.1434,0.1271,0.0933,0.0932,0.0931,0.0929,0,0,0.2144,0.2133,0.213,0.2106,0.2119,0.2089,0.2079,0.1973,0.1867,0.1599,0.1444,0.132,0.1466,0.1135,0.1091,0.101,0.1196,0.0955,0.1652,0.1577,0.1622,0.1748,0.1548,0,0,0,0,0]},{"header":{"parameterUnit":"m.s-1","parameterCategory":2,"la1":30.2991,"la2":30.254,"lo1":-89.0895,"lo2":-89.0444,"dy":0.0017,"dx":0.0017,"nx":28,"ny":28,"refTime":"2023-10-22T09:00:00:Z","depth":"2","parameterNumber":3,"parameterNumberName":"V-component_of_CURRENTS"},"data":[0,0,0,0,0,0,0,0,0,0,0,0,0,0,0,0,0,0,0,0,0,0,0,0,0,0,0,0,0,0,0,0,0,0,0,0,0,0,0,0,0,0,0,0,0,0,0,0,0,0,0,0,0,0,0,0,0,0,-0.0639,-0.064,0,-0.0745,-0.0746,-0.0748,-0.0795,-0.0795,-0.0795,-0.0795,-0.087,-0.0872,-0.0874,0,0,0,0,0,0,0,0,0,0,0,0,0,-0.0535,-0.0537,-0.0639,-0.0641,-0.0642,-0.0745,-0.0746,-0.0748,-0.0795,-0.0795,-0.0795,-0.0795,-0.0869,-0.0871,-0.0874,0,0,0,0,0,0,0,0,0,0,0,0,0,-0.0604,-0.0537,-0.0639,-0.0678,-0.0683,-0.0745,-0.0746,-0.0748,-0.0795,-0.0795,-0.0795,-0.0795,-0.0868,-0.0871,-0.0874,-0.0894,0,0,-0.0883,-0.0885,0,0,0,0,0,0,0,0,-0.06,-0.0607,-0.0671,-0.0676,-0.0681,-0.0758,-0.0738,-0.0796,-0.0795,-0.0751,-0.0795,-0.0794,-0.083,-0.0836,-0.0855,-0.0898,-0.0901,-0.0884,-0.0886,-0.0887,-0.0888,0,0,0,0,0,0,0,-0.0595,-0.0603,-0.068,-0.0673,-0.0679,-0.0711,-0.072,-0.0749,-0.0788,-0.0755,-0.0759,-0.0772,-0.0832,-0.0852,-0.0857,-0.0902,-0.0884,-0.0886,-0.0888,-0.0889,-0.0921,-0.092,0,0,0,0,0,0,-0.0581,-0.0599,-0.0677,-0.0683,-0.0641,-0.0713,-0.0723,-0.0732,-0.0789,-0.0798,-0.0772,-0.0774,-0.0847,-0.0854,-0.086,-0.0856,-0.0887,-0.089,-0.0891,-0.0922,-0.0921,-0.092,0,0,0,0,0,0,-0.0578,-0.0587,-0.0673,-0.0644,-0.0658,-0.0714,-0.0725,-0.0734,-0.0755,-0.0803,-0.0811,-0.0783,-0.0847,-0.0856,-0.0873,-0.086,-0.0891,-0.0894,-0.0923,-0.0922,-0.092,-0.0867,0,0,0,0,0,0,-0.0575,-0.0585,-0.0592,-0.0643,-0.0659,-0.0699,-0.0725,-0.0737,-0.0764,-0.0767,-0.0815,-0.0822,-0.0848,-0.0868,-0.0876,-0.0865,-0.0896,-0.0924,-0.0922,-0.0921,-0.087,-0.0864,-0.0859,0,0,0,0,0,-0.057,-0.0573,-0.0591,-0.0601,-0.0665,-0.0698,-0.0709,-0.0749,-0.0764,-0.0768,-0.0795,-0.082,-0.0861,-0.087,-0.088,-0.0869,-0.0925,-0.0923,-0.0921,-0.0872,-0.0865,-0.0859,0,0,0,0,0,0,-0.0538,-0.058,-0.0601,-0.0618,-0.0653,-0.0706,-0.0719,-0.0746,-0.0774,-0.0776,-0.0816,-0.0825,-0.0831,-0.0856,-0.0865,-0.0869,-0.0894,-0.0894,-0.0854,-0.0848,-0.0842,-0.0833,-0.0899,0,0,0,0,0,-0.0533,-0.0543,-0.059,-0.0606,-0.0619,-0.0669,-0.0691,-0.0716,-0.0747,-0.0761,-0.0792,-0.0817,-0.083,-0.0844,-0.0861,-0.0874,-0.0885,-0.0869,-0.0863,-0.0858,-0.0855,-0.0875,-0.0871,-0.0912,-0.0912,-0.0912,0,0,-0.0529,-0.0552,-0.0561,-0.0599,-0.063,-0.0639,-0.0681,-0.0707,-0.0715,-0.0763,-0.0779,-0.08,-0.0827,-0.0832,-0.0838,-0.0853,-0.0843,-0.0855,-0.0851,-0.0851,-0.0873,-0.0869,-0.0865,-0.0911,-0.0911,-0.0911,0,0,-0.0509,-0.054,-0.0535,-0.0555,-0.0593,-0.0622,-0.0625,-0.0673,-0.0693,-0.0714,-0.0738,-0.0752,-0.0787,-0.0799,-0.0809,-0.0785,-0.081,-0.0786,-0.0758,-0.0777,-0.0774,-0.0772,-0.0744,-0.074,-0.0788,-0.0788,-0.0788,0,-0.0499,-0.0501,-0.054,-0.0536,-0.0548,-0.0606,-0.0599,-0.063,-0.0677,-0.0686,-0.0707,-0.0741,-0.077,-0.0766,-0.0757,-0.0773,-0.0774,-0.0784,-0.0771,-0.0769,-0.0768,-0.074,-0.0736,-0.0785,-0.0785,-0.0785,-0.0786,0,-0.047,-0.0474,-0.0472,-0.0482,-0.05,-0.0506,-0.0547,-0.0565,-0.0598,-0.0629,-0.0641,-0.068,-0.0699,-0.0706,-0.0729,-0.0724,-0.0721,-0.0759,-0.079,-0.0761,-0.0733,-0.073,-0.0781,-0.0782,-0.0783,-0.0783,0,0,-0.0432,-0.0446,-0.0444,-0.0436,-0.047,-0.0477,-0.0488,-0.051,-0.0504,-0.056,-0.0552,-0.0592,-0.0622,-0.0634,-0.0662,-0.0684,-0.0668,-0.0716,-0.0718,-0.0689,-0.0674,-0.0595,-0.0584,-0.071,-0.071,-0.071,-0.0646,0,-0.0394,-0.0367,-0.0389,-0.0368,-0.0356,-0.0401,-0.0401,-0.0429,-0.0461,-0.0467,-0.0522,-0.0524,-0.0592,-0.0588,-0.0626,-0.0655,-0.0664,-0.068,-0.0706,-0.0706,-0.0641,-0.0579,-0.0616,-0.0556,-0.0643,-0.0642,-0.0642,0,-0.0349,-0.0337,-0.0305,-0.0298,-0.0296,-0.0295,-0.0296,-0.0304,-0.0336,-0.0355,-0.039,-0.0429,-0.0459,-0.0521,-0.0577,-0.0585,-0.0624,-0.0654,-0.0653,-0.0599,-0.0621,-0.0607,-0.0548,-0.0637,-0.0638,-0.0638,-0.0638,0,-0.0289,-0.0274,-0.0245,-0.0245,-0.0248,-0.0242,-0.0248,-0.0271,-0.0262,-0.0281,-0.0266,-0.0331,-0.0337,-0.0419,-0.0488,-0.0536,-0.053,-0.0606,-0.0563,-0.0557,-0.0602,-0.0599,-0.0639,-0.0639,-0.0639,-0.0639,-0.0639,0,-0.0231,-0.0209,-0.0215,-0.0197,-0.0158,-0.0183,-0.0147,-0.016,-0.0161,-0.0127,-0.0204,-0.0173,-0.0317,-0.0338,-0.0433,-0.0457,-0.0488,-0.0531,-0.0534,-0.0577,-0.0573,-0.0672,-0.0677,-0.0637,-0.0637,-0.0638,-0.0638,0,-0.0173,-0.0177,-0.0141,-0.0133,-0.0128,-0.0102,-0.0087,-0.0058,-0.0063,-0.0015,-0.0011,-0.0048,-0.0056,-0.0159,-0.025,-0.0348,-0.04,-0.0401,-0.0407,-0.0411,-0.0431,-0.0434,-0.0361,-0.0358,-0.0355,-0.0353,-0.0351,0,-0.014,-0.0114,-0.009,-0.0069,-0.0067,-0.0037,-0.0012,-0.0012,0.0026,0.0076,0.0116,0.0131,0.018,0.0107,-0.0079,-0.018,-0.0243,-0.0277,-0.0385,-0.0391,-0.0402,-0.041,-0.0416,-0.0418,-0.0416,-0.0415,-0.0414,0,-0.0073,-0.0071,-0.0042,-0.0002,0.0028,0.0069,0.0107,0.016,0.0184,0.0263,0.0371,0.0428,0.0346,0.0232,0.0088,-0.0019,-0.0271,-0.0254,-0.0268,-0.0466,-0.0435,-0.0449,-0.0456,-0.0405,-0.0406,-0.0407,-0.0407,-0.0408,-0.0026,0.0003,0.0033,0.0069,0.0106,0.0169,0.0223,0.0305,0.042,0.0537,0.0563,0.0638,0.0444,0.027,0.0114,-0.0107,-0.013,-0.0256,-0.0264,-0.0272,-0.0274,-0.0239,-0.017,-0.0169,-0.0169,-0.0168,-0.0168,0,0.0036,0.0054,0.0098,0.0149,0.0199,0.0194,0.0297,0.039,0.0564,0.0655,0.0771,0.0636,0.0527,0.0327,-0.0002,-0.0162,-0.0247,-0.0202,-0.0314,-0.0322,-0.0329,-0.034,-0.0249,-0.0249,-0.025,-0.025,0,0,0.0073,0.0123,0.0138,0.022,0.0244,0.0313,0.0376,0.0557,0.0655,0.0804,0.0815,0.0809,0.056,0.0316,0.0078,-0.0087,-0.0164,-0.0116,-0.0045,-0.016,-0.0164,-0.0361,-0.0384,0,0,0,0,0]}],[{"header":{"parameterUnit":"m.s-1","parameterCategory":2,"la1":30.2991,"la2":30.254,"lo1":-89.0895,"lo2":-89.0444,"dy":0.0017,"dx":0.0017,"nx":28,"ny":28,"refTime":"2023-10-22T09:00:00:Z","depth":"4","parameterNumber":2,"parameterNumberName":"U-component_of_CURRENTS"},"data":[0,0,0,0,0,0,0,0,0,0,0,0,0,0,0,0,0,0,0,0,0,0,0,0,0,0,0,0,0,0,0,0,0,0,0,0,0,0,0,0,0,0,0,0,0,0,0,0,0,0,0,0,0,0,0,0,0,0,0.0131,0.0132,0,0.0155,0.0155,0.0156,0.0182,0.0182,0.0183,0.0183,0.0347,0.0351,0.0355,0,0,0,0,0,0,0,0,0,0,0,0,0,0.0125,0.0125,0.0131,0.0132,0.0132,0.0155,0.0155,0.0156,0.0182,0.0182,0.0183,0.0184,0.0346,0.0351,0.0355,0,0,0,0,0,0,0,0,0,0,0,0,0,0.0134,0.0125,0.0131,0.0149,0.0151,0.0155,0.0155,0.0156,0.0182,0.0182,0.0183,0.0184,0.0345,0.035,0.0356,0.0375,0,0,0.0374,0.0376,0,0,0,0,0,0,0,0,0.0134,0.0134,0.0146,0.0148,0.015,0.0168,0.0213,0.0237,0.0181,0.0168,0.0183,0.0184,0.0301,0.031,0.0308,0.0383,0.039,0.0374,0.0378,0.038,0.0382,0,0,0,0,0,0,0,0.0133,0.0134,0.0139,0.0147,0.0149,0.0162,0.0164,0.0217,0.0231,0.0169,0.0172,0.0177,0.0303,0.0303,0.0313,0.0392,0.0374,0.0379,0.0383,0.0385,0.0614,0.0617,0,0,0,0,0,0,0.0132,0.0133,0.0138,0.014,0.0146,0.0162,0.0164,0.016,0.0227,0.0238,0.0176,0.0178,0.0292,0.0306,0.0319,0.048,0.038,0.0386,0.0389,0.0612,0.0615,0.0618,0,0,0,0,0,0,0.0132,0.0132,0.0137,0.0139,0.0141,0.0161,0.0157,0.016,0.0198,0.0231,0.0244,0.0215,0.0294,0.0311,0.0401,0.0482,0.0388,0.0393,0.0608,0.0612,0.0616,0.0718,0,0,0,0,0,0,0.0131,0.0131,0.013,0.0139,0.0141,0.0151,0.0156,0.016,0.0198,0.0202,0.0269,0.0282,0.0296,0.0393,0.0407,0.0488,0.0398,0.0605,0.061,0.0615,0.0711,0.0725,0.0736,0,0,0,0,0,0.0131,0.0126,0.013,0.0131,0.0138,0.0152,0.0155,0.0171,0.02,0.021,0.0272,0.0282,0.0434,0.0399,0.0416,0.0501,0.0603,0.0609,0.0614,0.0705,0.0722,0.0736,0,0,0,0,0,0,0.0129,0.0128,0.0133,0.013,0.0147,0.0158,0.0173,0.0195,0.0248,0.0277,0.0312,0.033,0.0437,0.0451,0.0411,0.0579,0.0523,0.0532,0.0586,0.0602,0.0614,0.0615,0.0403,0,0,0,0,0,0.0126,0.0122,0.0131,0.0135,0.0146,0.0171,0.0185,0.0206,0.025,0.0274,0.0336,0.0404,0.0467,0.0519,0.0565,0.0662,0.0628,0.0727,0.074,0.0751,0.0762,0.0741,0.0752,0.0637,0.0637,0.0637,0,0,0.0128,0.0129,0.0128,0.0135,0.0154,0.0184,0.0182,0.0222,0.0274,0.0289,0.0403,0.0451,0.0498,0.06,0.0652,0.0631,0.077,0.0758,0.0767,0.0773,0.0748,0.0759,0.0768,0.0641,0.064,0.0639,0,0,0.0138,0.0137,0.0142,0.0159,0.0194,0.0213,0.0237,0.0288,0.0335,0.0434,0.0465,0.0557,0.0664,0.0711,0.0746,0.0858,0.0827,0.0892,0.0977,0.0956,0.0965,0.0972,0.0954,0.0959,0.091,0.0911,0.0911,0,0.0137,0.0151,0.015,0.0171,0.0199,0.0237,0.0276,0.0324,0.0411,0.0473,0.0489,0.0668,0.0714,0.083,0.088,0.089,0.0867,0.0916,0.097,0.0976,0.0982,0.0961,0.0965,0.0916,0.0916,0.0915,0.0914,0,0.0166,0.0178,0.0193,0.023,0.0259,0.0301,0.0363,0.0436,0.0519,0.0581,0.0729,0.0791,0.0899,0.0938,0.0957,0.1048,0.1016,0.0974,0.0925,0.0999,0.0974,0.0976,0.0924,0.0922,0.092,0.0919,0,0,0.0157,0.0198,0.0207,0.0228,0.03,0.0324,0.0432,0.0529,0.0607,0.0732,0.0838,0.0984,0.104,0.1082,0.1122,0.1131,0.1166,0.1093,0.109,0.1065,0.1125,0.101,0.1,0.1128,0.1129,0.113,0.1095,0,0.0183,0.0221,0.0249,0.0311,0.034,0.0409,0.0507,0.061,0.0699,0.0811,0.0924,0.1045,0.1087,0.1159,0.1182,0.1174,0.1175,0.1179,0.1067,0.1064,0.0942,0.0999,0.1132,0.1096,0.1096,0.1097,0.1097,0,0.0207,0.0229,0.0284,0.0355,0.0381,0.0443,0.058,0.0673,0.0831,0.0903,0.1038,0.1118,0.1248,0.1218,0.1262,0.1265,0.1216,0.118,0.1176,0.1032,0.0951,0.1005,0.1099,0.1099,0.1099,0.1098,0.1098,0,0.0194,0.0252,0.0296,0.0319,0.0417,0.0487,0.0581,0.0729,0.0822,0.0975,0.1047,0.1186,0.1256,0.1257,0.1256,0.1264,0.1212,0.1198,0.1038,0.1029,0.1096,0.1088,0.1162,0.1163,0.1163,0.1163,0.1163,0,0.0201,0.0228,0.0298,0.0317,0.0423,0.0504,0.064,0.0735,0.0879,0.0976,0.1118,0.1172,0.126,0.1267,0.1251,0.1161,0.1214,0.1062,0.1014,0.1143,0.1141,0.1097,0.109,0.1161,0.1162,0.1162,0.1162,0,0.017,0.021,0.0251,0.0355,0.0412,0.0497,0.0681,0.0757,0.0903,0.1013,0.1082,0.1179,0.1177,0.1209,0.1159,0.1126,0.1061,0.0985,0.1129,0.1087,0.09,0.0899,0.0852,0.0848,0.0844,0.0841,0.0839,0,0.0148,0.0167,0.0269,0.0314,0.0369,0.0513,0.0614,0.0775,0.0825,0.0992,0.1007,0.1069,0.1113,0.0986,0.0991,0.0938,0.0896,0.0889,0.0916,0.0911,0.0869,0.0874,0.0878,0.0833,0.0832,0.0831,0.083,0,0.0104,0.0145,0.0183,0.0292,0.0381,0.0484,0.0616,0.0653,0.0814,0.0924,0.0946,0.0978,0.0917,0.0892,0.0831,0.0791,0.094,0.0851,0.0859,0.0885,0.0887,0.085,0.0858,0.0817,0.0819,0.082,0.0821,0,0.0074,0.01,0.0168,0.0263,0.0357,0.0434,0.052,0.0586,0.0681,0.0835,0.0806,0.0854,0.0887,0.0804,0.0755,0.0713,0.0705,0.0719,0.0734,0.0748,0.0725,0.0713,0.0555,0,0,0,0,0,0.0058,0.0093,0.0147,0.024,0.0313,0.0391,0.05,0.0568,0.069,0.068,0.0761,0.0718,0.0691,0.0683,0.0608,0.066,0.0681,0.0571,0.07,0.0746,0.0761,0.0741,0,0,0,0,0,0,0.0057,0.0099,0.013,0.0194,0.0249,0.0347,0.0419,0.0498,0.0495,0.0606,0.0567,0.0669,0.0605,0.0708,0.0589,0.0586,0.0653,0.0586,0.0584,0.0738,0.0751,0.0763,0.0748,0,0,0,0,0]},{"header":{"parameterUnit":"m.s-1","parameterCategory":2,"la1":30.2991,"la2":30.254,"lo1":-89.0895,"lo2":-89.0444,"dy":0.0017,"dx":0.0017,"nx":28,"ny":28,"refTime":"2023-10-22T09:00:00:Z","depth":"4","parameterNumber":3,"parameterNumberName":"V-component_of_CURRENTS"},"data":[0,0,0,0,0,0,0,0,0,0,0,0,0,0,0,0,0,0,0,0,0,0,0,0,0,0,0,0,0,0,0,0,0,0,0,0,0,0,0,0,0,0,0,0,0,0,0,0,0,0,0,0,0,0,0,0,0,0,0.041,0.041,0,0.0403,0.0403,0.0403,0.0442,0.0443,0.0444,0.0445,0.0386,0.0384,0.0381,0,0,0,0,0,0,0,0,0,0,0,0,0,0.0374,0.0375,0.041,0.041,0.041,0.0403,0.0403,0.0403,0.0442,0.0443,0.0444,0.0445,0.0387,0.0384,0.0381,0,0,0,0,0,0,0,0,0,0,0,0,0,0.0383,0.0376,0.041,0.0426,0.0428,0.0403,0.0403,0.0403,0.0442,0.0443,0.0444,0.0445,0.0388,0.0384,0.0381,0.0331,0,0,0.037,0.0368,0,0,0,0,0,0,0,0,0.0382,0.0385,0.0424,0.0425,0.0426,0.0423,0.0369,0.0376,0.0441,0.0439,0.0445,0.0446,0.0391,0.0387,0.0387,0.0329,0.0326,0.0369,0.0367,0.0366,0.0365,0,0,0,0,0,0,0,0.0382,0.0385,0.041,0.0424,0.0425,0.0405,0.0409,0.037,0.0408,0.0439,0.0441,0.0436,0.0392,0.039,0.0386,0.0325,0.0369,0.0366,0.0364,0.0363,0.0238,0.0236,0,0,0,0,0,0,0.0381,0.0384,0.041,0.0409,0.0405,0.0405,0.0409,0.0424,0.041,0.0409,0.0435,0.0438,0.0396,0.039,0.0384,0.0359,0.0366,0.0362,0.036,0.0239,0.0237,0.0236,0,0,0,0,0,0,0.0381,0.0384,0.041,0.0393,0.0395,0.0405,0.0421,0.0424,0.0449,0.0407,0.0406,0.0461,0.0397,0.0389,0.0367,0.0356,0.0361,0.0357,0.024,0.0238,0.0237,0.0288,0,0,0,0,0,0,0.038,0.0385,0.0402,0.0394,0.0396,0.0413,0.0419,0.0422,0.0441,0.0446,0.0427,0.0422,0.0397,0.0372,0.0363,0.0351,0.0355,0.0242,0.0239,0.0237,0.0287,0.0288,0.0288,0,0,0,0,0,0.0379,0.0397,0.0404,0.0406,0.0418,0.0414,0.0414,0.0424,0.0441,0.0453,0.0438,0.0424,0.0351,0.0369,0.0358,0.0345,0.0243,0.024,0.0237,0.0287,0.0288,0.0288,0,0,0,0,0,0,0.0393,0.0402,0.0409,0.0431,0.0429,0.042,0.0431,0.0437,0.0437,0.0447,0.0417,0.041,0.0382,0.0352,0.0372,0.0298,0.029,0.0286,0.0332,0.0332,0.0332,0.0338,0.0352,0,0,0,0,0,0.0401,0.0423,0.0418,0.0438,0.0439,0.044,0.0442,0.045,0.0442,0.0447,0.0431,0.0398,0.0355,0.034,0.0302,0.0267,0.0233,0.0246,0.0246,0.0247,0.0242,0.0188,0.0184,0.0227,0.0227,0.0228,0,0,0.0406,0.0419,0.0429,0.0443,0.0445,0.0444,0.0447,0.046,0.046,0.0435,0.0437,0.0404,0.0346,0.031,0.0293,0.029,0.0216,0.0244,0.0245,0.0239,0.0185,0.0181,0.0177,0.0226,0.0226,0.0226,0,0,0.0421,0.0446,0.0461,0.0464,0.0472,0.0466,0.0475,0.0475,0.0481,0.0469,0.0442,0.0409,0.036,0.0313,0.0281,0.0255,0.0221,0.0239,0.0247,0.0196,0.0193,0.0189,0.0148,0.014,0.0239,0.0239,0.0239,0,0.0428,0.0452,0.0462,0.0474,0.0475,0.0479,0.0483,0.0481,0.0475,0.0463,0.0478,0.039,0.0356,0.0285,0.0279,0.0258,0.0227,0.0259,0.0199,0.0195,0.0191,0.0149,0.014,0.0241,0.0241,0.0241,0.0241,0,0.0445,0.0465,0.0475,0.0492,0.0493,0.0502,0.0492,0.0498,0.0504,0.0487,0.0444,0.0399,0.0346,0.0322,0.0296,0.0234,0.0223,0.0211,0.0208,0.019,0.0146,0.0136,0.0244,0.0244,0.0243,0.0242,0,0,0.0455,0.0481,0.0486,0.0491,0.0506,0.0503,0.0505,0.0487,0.0477,0.0468,0.0442,0.0374,0.0358,0.0319,0.0278,0.0232,0.0183,0.0215,0.0211,0.019,0.0075,0.0082,0.0071,0.0167,0.0165,0.0164,0.006,0,0.0465,0.049,0.0497,0.0505,0.0511,0.0512,0.0515,0.0501,0.0478,0.0454,0.0406,0.0371,0.0353,0.0336,0.0284,0.0201,0.0156,0.0212,0.0079,0.0075,0.0098,0.006,0.0159,0.0053,0.005,0.0048,0.0047,0,0.0475,0.0492,0.0511,0.0516,0.0519,0.0529,0.0518,0.0518,0.0479,0.046,0.0414,0.038,0.031,0.0311,0.0172,0.0211,0.015,0.0092,0.0086,0.0067,0.0063,0.0068,0.0028,0.003,0.0031,0.0032,0.0034,0,0.0475,0.0493,0.0512,0.0518,0.053,0.0542,0.0554,0.0529,0.0524,0.0472,0.0455,0.0366,0.033,0.0241,0.0138,0.0155,-0.0016,-0.0008,-0.0062,-0.0062,-0.0056,-0.0052,-0.0102,-0.0102,-0.0101,-0.0101,-0.0101,0,0.0478,0.0487,0.0523,0.0532,0.0559,0.0567,0.0583,0.0566,0.0549,0.0523,0.0475,0.042,0.0312,0.0211,0.0125,-0.0005,-0.0025,-0.0073,-0.0095,-0.0033,-0.0024,-0.0063,-0.0057,-0.0105,-0.0104,-0.0103,-0.0103,0,0.0472,0.0496,0.0514,0.0545,0.0564,0.0591,0.0632,0.0623,0.0613,0.0576,0.0573,0.0454,0.0315,0.0199,0.0028,-0.0022,-0.0144,-0.0182,-0.0111,-0.0124,-0.015,-0.014,-0.025,-0.0251,-0.0252,-0.0252,-0.0253,0,0.0465,0.0483,0.0535,0.0558,0.058,0.0631,0.0659,0.0665,0.0638,0.0581,0.0541,0.0426,0.0337,0.0093,-0.0023,-0.0186,-0.0198,-0.0241,-0.0191,-0.0159,-0.0169,-0.0158,-0.0148,-0.0254,-0.0254,-0.0254,-0.0254,0,0.0446,0.0481,0.0495,0.0562,0.06,0.0636,0.0663,0.0651,0.0636,0.063,0.0504,0.0403,0.0235,0.0068,-0.0057,-0.0171,-0.0201,-0.0248,-0.0246,-0.0199,-0.0164,-0.0171,-0.016,-0.0256,-0.0256,-0.0256,-0.0256,0,0.0434,0.0449,0.0491,0.0541,0.0593,0.0614,0.0636,0.0604,0.0595,0.0531,0.0479,0.0336,0.0248,0.0072,-0.0053,-0.0154,-0.0165,-0.0166,-0.0169,-0.0167,-0.0101,-0.0041,-0.0128,0,0,0,0,0,0.0417,0.0433,0.0467,0.0507,0.0557,0.0597,0.0615,0.0622,0.061,0.0522,0.0508,0.0359,0.0179,0.0078,-0.0026,-0.0061,-0.0182,-0.0182,-0.0183,-0.0269,-0.0266,-0.02,0,0,0,0,0,0,0.0406,0.0435,0.045,0.0474,0.0505,0.0548,0.057,0.0559,0.0501,0.0483,0.0365,0.0356,0.0153,0.0233,-0.0025,-0.0056,-0.0063,-0.0262,-0.0263,-0.027,-0.0268,-0.0266,-0.0197,0,0,0,0,0]}]]